Albuquerque, NM

6:19 AM MST on November 18, 2017 (GMT -0700)
Albuquerque International Sunport

Weather History for KABQ - July, 2012

Change the Weather History Date:

Wednesday, July 4, 2012

  Actual Average Record
Temperature  
Mean Temperature 82 °F 78 °F  
Max Temperature 93 °F 91 °F 103 °F (1957)
Min Temperature 70 °F 66 °F 46 °F (1916)
Degree Days  
Heating Degree Days 0 0  
Month to date heating degree days 0 0  
Since 1 June heating degree days 0 4  
Since 1 July heating degree days 0 0  
Cooling Degree Days 17 13  
Month to date cooling degree days 73 52  
Year to date cooling degree days 713 452  
Since 1 June cooling degree days 541 354  
Growing Degree Days 32 (Base 50)    
Moisture  
Dew Point 54 °F    
Average Humidity 46    
Maximum Humidity 68    
Minimum Humidity 23    
Precipitation  
Precipitation 0.04 in 0.03 in 0.57 in (1926)
Month to date precipitation 0.15 0.14  
Year to date precipitation 2.43 3.34  
Snow  
Snow 0.00 in - - ()
Month to date snowfall 0.0  
Since 1 June snowfall 0.0  
Since 1 July snowfall 0.0  
Snow Depth 0.00 in    
Sea Level Pressure  
Sea Level Pressure 29.80 in    
Wind  
Wind Speed 9 mph (South)    
Max Wind Speed 43 mph    
Max Gust Speed 53 mph    
Visibility 10 miles    
Events Rain , Thunderstorm    
T = Trace of Precipitation, MM = Missing Value Source: NWS Daily Summary

Daily Weather History Graph

Daily Weather History Graph

Search for Another Location

Airport or City:

Trip Planner

Search our weather history database for the weather conditions in past years. The results will help you decide how hot, cold, wet, or windy it might be!

Date:

Astronomy

Jul. 04, 2012 Rise Set
Actual Time 5:57 AM MDT 8:24 PM MDT
Civil Twilight 5:28 AM MDT 8:53 PM MDT
Nautical Twilight 4:51 AM MDT 9:29 PM MDT
Astronomical Twilight 4:11 AM MDT 10:09 PM MDT
Moon 9:09 PM MDT (7/4) 6:59 AM MDT (7/4)
Length of Visible Light 15h 25m
Length of Day
14h 26m
Full, 99% of the Moon is Illuminated
Jul 4
Full
Jul 10
Last Quarter
Jul 18
New
Jul 26
First Quarter
Aug 1
Full

Hourly Weather History & Observations

Time (MDT) Temp. Heat Index Dew Point Humidity Pressure Visibility Wind Dir Wind Speed Gust Speed Precip Events Conditions
12:52 AM 78.1 °F - 48.9 °F 36% 29.74 in 10.0 mi West 3.5 mph - N/A   Mostly Cloudy
1:52 AM 72.0 °F - 48.0 °F 43% 29.75 in 10.0 mi SE 5.8 mph - N/A   Overcast
2:52 AM 73.0 °F - 48.9 °F 42% 29.75 in 10.0 mi SE 9.2 mph - N/A   Overcast
3:52 AM 71.1 °F - 48.9 °F 45% 29.76 in 10.0 mi SE 4.6 mph - N/A   Overcast
4:52 AM 72.0 °F - 48.9 °F 44% 29.76 in 10.0 mi SSE 9.2 mph - N/A   Overcast
5:52 AM 71.1 °F - 51.1 °F 49% 29.78 in 10.0 mi South 11.5 mph - N/A   Mostly Cloudy
6:52 AM 71.1 °F - 55.0 °F 57% 29.81 in 10.0 mi South 11.5 mph - N/A   Mostly Cloudy
7:52 AM 72.0 °F - 57.0 °F 59% 29.83 in 10.0 mi South 13.8 mph - N/A   Mostly Cloudy
8:52 AM 73.9 °F - 57.0 °F 55% 29.83 in 10.0 mi South 9.2 mph - N/A   Mostly Cloudy
9:52 AM 75.9 °F - 57.0 °F 52% 29.83 in 10.0 mi Variable 5.8 mph - N/A   Mostly Cloudy
10:52 AM 80.1 °F 80.1 °F 55.0 °F 42% 29.81 in 10.0 mi Variable 6.9 mph - N/A   Mostly Cloudy
11:52 AM 82.9 °F 81.8 °F 53.1 °F 36% 29.81 in 10.0 mi Calm Calm - N/A   Mostly Cloudy
12:52 PM 82.0 °F 81.2 °F 53.1 °F 37% 29.79 in 10.0 mi WSW 8.1 mph - N/A   Mostly Cloudy
1:52 PM 86.0 °F - 52.0 °F 31% 29.76 in 10.0 mi Variable 4.6 mph - N/A   Scattered Clouds
2:52 PM 88.0 °F - 50.0 °F 27% 29.73 in 10.0 mi SW 9.2 mph - N/A   Scattered Clouds
3:52 PM 90.0 °F - 46.0 °F 22% 29.69 in 10.0 mi SW 10.4 mph - N/A   Scattered Clouds
4:47 PM 91.4 °F - 46.4 °F 21% 29.95 in 10.0 mi WSW 12.7 mph 16.1 mph N/A Thunderstorm Thunderstorm
4:52 PM 91.9 °F - 48.0 °F 22% 29.66 in 10.0 mi SW 11.5 mph 16.1 mph N/A Thunderstorm Thunderstorm
5:26 PM 80.6 °F 80.5 °F 55.4 °F 42% 29.98 in 10.0 mi SE 28.8 mph 42.6 mph 0.00 in Rain , Thunderstorm Light Thunderstorms and Rain
5:52 PM 70.0 °F - 63.0 °F 78% 29.76 in 6.0 mi SSE 38.0 mph 52.9 mph 0.00 in Rain , Thunderstorm Thunderstorms and Rain
6:36 PM 71.6 °F - 60.8 °F 69% 30.04 in 10.0 mi SSE 20.7 mph 34.5 mph 0.02 in   Mostly Cloudy
6:52 PM 73.0 °F - 60.1 °F 64% 29.81 in 10.0 mi SSE 21.9 mph 31.1 mph 0.02 in Rain Light Rain
7:52 PM 71.1 °F - 59.0 °F 66% 29.80 in 10.0 mi SSW 13.8 mph - 0.02 in Rain Light Rain
8:52 PM 73.0 °F - 59.0 °F 61% 29.81 in 10.0 mi NE 4.6 mph - 0.00 in   Overcast
9:52 PM 72.0 °F - 61.0 °F 68% 29.82 in 10.0 mi Calm Calm - N/A   Overcast
10:52 PM 73.0 °F - 59.0 °F 61% 29.82 in 10.0 mi NNE 4.6 mph - N/A   Overcast
11:52 PM 73.0 °F - 57.0 °F 57% 29.83 in 10.0 mi Calm Calm - N/A   Overcast